Location: Brede
(50.9167°N, 0.6000°E)
Time: 08:37:10
(UTC+00:00)

Altair - Pass Details

Date: 07 August 2021
Orbit: 1501 x 1682 km, 47.2° (Epoch: 18 September)

Event Time Altitude Azimuth Distance (km) Brightness Sun altitude
Rises 03:31:26 0° 271° (W) 4,725 9.6 -8.8°
Reaches altitude 10° 03:34:33 10° 269° (W) 3,719 9.1 -8.5°
Maximum altitude 03:43:47 69° 189° (S) 1,598 7.5 -7.3°
Drops below altitude 10° 03:52:52 10° 108° (ESE) 3,651 10.0 -6.2°
Sets 03:55:53 0° 107° (ESE) 4,633 10.6 -5.8°
